Year,Month,Day,Hour,Minute,Value (Times are PST for windgust in km/hr)
2015,09,21,00,00,25.70
2015,09,21,00,01,24.20
2015,09,21,00,02,22.50
2015,09,21,00,03,25.70
2015,09,21,00,04,22.50
2015,09,21,00,05,27.40
2015,09,21,00,06,29.00
2015,09,21,00,07,27.40
2015,09,21,00,08,27.40
2015,09,21,00,09,25.70
2015,09,21,00,10,24.20
2015,09,21,00,11,30.60
2015,09,21,00,12,24.20
2015,09,21,00,13,33.80
2015,09,21,00,14,27.40
2015,09,21,00,15,27.40
2015,09,21,00,16,22.50
2015,09,21,00,17,27.40
2015,09,21,00,18,29.00
2015,09,21,00,19,30.60
2015,09,21,00,20,29.00
2015,09,21,00,21,27.40
2015,09,21,00,22,29.00
2015,09,21,00,23,30.60
2015,09,21,00,24,25.70
2015,09,21,00,25,22.50
2015,09,21,00,26,22.50
2015,09,21,00,27,24.20
2015,09,21,00,28,27.40
2015,09,21,00,29,24.20
2015,09,21,00,30,22.50
2015,09,21,00,31,22.50
2015,09,21,00,32,22.50
2015,09,21,00,33,19.30
2015,09,21,00,34,20.90
2015,09,21,00,35,25.70
2015,09,21,00,36,24.20
2015,09,21,00,37,25.70
2015,09,21,00,38,20.90
2015,09,21,00,39,17.70
2015,09,21,00,40,25.70
2015,09,21,00,41,24.20
2015,09,21,00,42,17.70
2015,09,21,00,43,17.70
2015,09,21,00,44,25.70
2015,09,21,00,45,24.20
2015,09,21,00,46,24.20
2015,09,21,00,47,20.90
2015,09,21,00,48,20.90
2015,09,21,00,49,17.70
2015,09,21,00,50,16.10
2015,09,21,00,51,12.90
2015,09,21,00,52,14.50
2015,09,21,00,53,22.50
2015,09,21,00,54,19.30
2015,09,21,00,55,19.30
2015,09,21,00,56,22.50
2015,09,21,00,57,24.20
2015,09,21,00,58,24.20
2015,09,21,00,59,20.90
2015,09,21,01,00,19.30
2015,09,21,01,01,24.20
2015,09,21,01,02,19.30
2015,09,21,01,03,24.20
2015,09,21,01,04,20.90
2015,09,21,01,05,22.50
2015,09,21,01,06,20.90
2015,09,21,01,07,14.50
2015,09,21,01,08,20.90
2015,09,21,01,09,19.30
2015,09,21,01,10,20.90
2015,09,21,01,11,20.90
2015,09,21,01,12,20.90
2015,09,21,01,13,19.30
2015,09,21,01,14,19.30
2015,09,21,01,15,16.10
2015,09,21,01,16,19.30
2015,09,21,01,17,17.70
2015,09,21,01,18,29.00
2015,09,21,01,19,24.20
2015,09,21,01,20,19.30
2015,09,21,01,21,20.90
2015,09,21,01,22,19.30
2015,09,21,01,23,24.20
2015,09,21,01,24,14.50
2015,09,21,01,25,19.30
2015,09,21,01,26,12.90
2015,09,21,01,27,19.30
2015,09,21,01,28,19.30
2015,09,21,01,29,16.10
2015,09,21,01,30,16.10
2015,09,21,01,31,20.90
2015,09,21,01,32,17.70
2015,09,21,01,33,16.10
2015,09,21,01,34,16.10
2015,09,21,01,35,12.90
2015,09,21,01,36,19.30
2015,09,21,01,37,19.30
2015,09,21,01,38,20.90
2015,09,21,01,39,19.30
2015,09,21,01,40,20.90
2015,09,21,01,41,22.50
2015,09,21,01,42,19.30
2015,09,21,01,43,24.20
2015,09,21,01,44,17.70
2015,09,21,01,45,24.20
2015,09,21,01,46,22.50
2015,09,21,01,47,24.20
2015,09,21,01,48,22.50
2015,09,21,01,49,20.90
2015,09,21,01,50,24.20
2015,09,21,01,51,25.70
2015,09,21,01,52,22.50
2015,09,21,01,53,22.50
2015,09,21,01,54,27.40
2015,09,21,01,55,22.50
2015,09,21,01,56,24.20
2015,09,21,01,57,20.90
2015,09,21,01,58,17.70
2015,09,21,01,59,20.90
2015,09,21,02,00,25.70
2015,09,21,02,01,22.50
2015,09,21,02,02,19.30
2015,09,21,02,03,27.40
2015,09,21,02,04,24.20
2015,09,21,02,05,22.50
2015,09,21,02,06,16.10
2015,09,21,02,07,24.20
2015,09,21,02,08,19.30
2015,09,21,02,09,22.50
2015,09,21,02,10,20.90
2015,09,21,02,11,14.50
2015,09,21,02,12,22.50
2015,09,21,02,13,17.70
2015,09,21,02,14,17.70
2015,09,21,02,15,19.30
2015,09,21,02,16,17.70
2015,09,21,02,17,17.70
2015,09,21,02,18,19.30
2015,09,21,02,19,22.50
2015,09,21,02,20,16.10
2015,09,21,02,21,14.50
2015,09,21,02,22,19.30
2015,09,21,02,23,22.50
2015,09,21,02,24,25.70
2015,09,21,02,25,19.30
2015,09,21,02,26,20.90
2015,09,21,02,27,24.20
2015,09,21,02,28,19.30
2015,09,21,02,29,22.50
2015,09,21,02,30,19.30
2015,09,21,02,31,19.30
2015,09,21,02,32,22.50
2015,09,21,02,33,19.30
2015,09,21,02,34,20.90
2015,09,21,02,35,16.10
2015,09,21,02,36,22.50
2015,09,21,02,37,25.70
2015,09,21,02,38,19.30
2015,09,21,02,39,17.70
2015,09,21,02,40,12.90
2015,09,21,02,41,14.50
2015,09,21,02,42,16.10
2015,09,21,02,43,19.30
2015,09,21,02,44,16.10
2015,09,21,02,45,17.70
2015,09,21,02,46,11.30
2015,09,21,02,47,11.30
2015,09,21,02,48,14.50
2015,09,21,02,49,12.90
2015,09,21,02,50,9.60
2015,09,21,02,51,9.60
2015,09,21,02,52,16.10
2015,09,21,02,53,17.70
2015,09,21,02,54,12.90
2015,09,21,02,55,8.10
2015,09,21,02,56,16.10
2015,09,21,02,57,16.10
2015,09,21,02,58,12.90
2015,09,21,02,59,16.10
2015,09,21,03,00,22.50
2015,09,21,03,01,22.50
2015,09,21,03,02,14.50
2015,09,21,03,03,17.70
2015,09,21,03,04,17.70
2015,09,21,03,05,20.90
2015,09,21,03,06,16.10
2015,09,21,03,07,19.30
2015,09,21,03,08,17.70
2015,09,21,03,09,17.70
2015,09,21,03,10,14.50
2015,09,21,03,11,17.70
2015,09,21,03,12,17.70
2015,09,21,03,13,22.50
2015,09,21,03,14,16.10
2015,09,21,03,15,16.10
2015,09,21,03,16,17.70
2015,09,21,03,17,17.70
2015,09,21,03,18,11.30
2015,09,21,03,19,17.70
2015,09,21,03,20,17.70
2015,09,21,03,21,19.30
2015,09,21,03,22,20.90
2015,09,21,03,23,16.10
2015,09,21,03,24,17.70
2015,09,21,03,25,19.30
2015,09,21,03,26,20.90
2015,09,21,03,27,22.50
2015,09,21,03,28,22.50
2015,09,21,03,29,16.10
2015,09,21,03,30,24.20
2015,09,21,03,31,19.30
2015,09,21,03,32,22.50
2015,09,21,03,33,20.90
2015,09,21,03,34,14.50
2015,09,21,03,35,20.90
2015,09,21,03,36,22.50
2015,09,21,03,37,24.20
2015,09,21,03,38,14.50
2015,09,21,03,39,16.10
2015,09,21,03,40,17.70
2015,09,21,03,41,22.50
2015,09,21,03,42,17.70
2015,09,21,03,43,17.70
2015,09,21,03,44,19.30
2015,09,21,03,45,19.30
2015,09,21,03,46,22.50
2015,09,21,03,47,27.40
2015,09,21,03,48,24.20
2015,09,21,03,49,22.50
2015,09,21,03,50,20.90
2015,09,21,03,51,20.90
2015,09,21,03,52,19.30
2015,09,21,03,53,27.40
2015,09,21,03,54,25.70
2015,09,21,03,55,20.90
2015,09,21,03,56,22.50
2015,09,21,03,57,22.50
2015,09,21,03,58,20.90
2015,09,21,03,59,20.90
2015,09,21,04,00,17.70
2015,09,21,04,01,16.10
2015,09,21,04,02,20.90
2015,09,21,04,03,17.70
2015,09,21,04,04,17.70
2015,09,21,04,05,16.10
2015,09,21,04,06,24.20
2015,09,21,04,07,20.90
2015,09,21,04,08,17.70
2015,09,21,04,09,14.50
2015,09,21,04,10,14.50
2015,09,21,04,11,20.90
2015,09,21,04,12,17.70
2015,09,21,04,13,17.70
2015,09,21,04,14,14.50
2015,09,21,04,15,17.70
2015,09,21,04,16,12.90
2015,09,21,04,17,12.90
2015,09,21,04,18,19.30
2015,09,21,04,19,11.30
2015,09,21,04,20,14.50
2015,09,21,04,21,14.50
2015,09,21,04,22,16.10
2015,09,21,04,23,12.90
2015,09,21,04,24,12.90
2015,09,21,04,25,9.60
2015,09,21,04,26,12.90
2015,09,21,04,27,14.50
2015,09,21,04,28,14.50
2015,09,21,04,29,14.50
2015,09,21,04,30,12.90
2015,09,21,04,31,17.70
2015,09,21,04,32,11.30
2015,09,21,04,33,12.90
2015,09,21,04,34,12.90
2015,09,21,04,35,16.10
2015,09,21,04,36,22.50
2015,09,21,04,37,14.50
2015,09,21,04,38,19.30
2015,09,21,04,39,17.70
2015,09,21,04,40,14.50
2015,09,21,04,41,16.10
2015,09,21,04,42,12.90
2015,09,21,04,43,14.50
2015,09,21,04,44,14.50
2015,09,21,04,45,16.10
2015,09,21,04,46,20.90
2015,09,21,04,47,16.10
2015,09,21,04,48,11.30
2015,09,21,04,49,14.50
2015,09,21,04,50,14.50
2015,09,21,04,51,14.50
2015,09,21,04,52,12.90
2015,09,21,04,53,17.70
2015,09,21,04,54,16.10
2015,09,21,04,55,12.90
2015,09,21,04,56,12.90
2015,09,21,04,57,14.50
2015,09,21,04,58,14.50
2015,09,21,04,59,12.90
2015,09,21,05,00,14.50
2015,09,21,05,01,17.70
2015,09,21,05,02,14.50
2015,09,21,05,03,9.60
2015,09,21,05,04,14.50
2015,09,21,05,05,11.30
2015,09,21,05,06,12.90
2015,09,21,05,07,11.30
2015,09,21,05,08,12.90
2015,09,21,05,09,11.30
2015,09,21,05,10,9.60
2015,09,21,05,11,11.30
2015,09,21,05,12,6.40
2015,09,21,05,13,6.40
2015,09,21,05,14,11.30
2015,09,21,05,15,6.40
2015,09,21,05,16,3.20
2015,09,21,05,17,6.40
2015,09,21,05,18,6.40
2015,09,21,05,19,6.40
2015,09,21,05,20,4.80
2015,09,21,05,21,4.80
2015,09,21,05,22,8.10
2015,09,21,05,23,8.10
2015,09,21,05,24,12.90
2015,09,21,05,25,12.90
2015,09,21,05,26,11.30
2015,09,21,05,27,12.90
2015,09,21,05,28,14.50
2015,09,21,05,29,12.90
2015,09,21,05,30,9.60
2015,09,21,05,31,8.10
2015,09,21,05,32,11.30
2015,09,21,05,33,16.10
2015,09,21,05,34,11.30
2015,09,21,05,35,12.90
2015,09,21,05,36,6.40
2015,09,21,05,37,11.30
2015,09,21,05,38,6.40
2015,09,21,05,39,4.80
2015,09,21,05,40,9.60
2015,09,21,05,41,4.80
2015,09,21,05,42,4.80
2015,09,21,05,43,8.10
2015,09,21,05,44,6.40
2015,09,21,05,45,11.30
2015,09,21,05,46,8.10
2015,09,21,05,47,8.10
2015,09,21,05,48,9.60
2015,09,21,05,49,6.40
2015,09,21,05,50,9.60
2015,09,21,05,51,12.90
2015,09,21,05,52,9.60
2015,09,21,05,53,8.10
2015,09,21,05,54,8.10
2015,09,21,05,55,9.60
2015,09,21,05,56,9.60
2015,09,21,05,57,12.90
2015,09,21,05,58,9.60
2015,09,21,05,59,11.30
2015,09,21,06,00,12.90
2015,09,21,06,01,9.60
2015,09,21,06,02,9.60
2015,09,21,06,03,8.10
2015,09,21,06,04,9.60
2015,09,21,06,05,6.40
2015,09,21,06,06,6.40
2015,09,21,06,07,9.60
2015,09,21,06,08,8.10
2015,09,21,06,09,6.40
2015,09,21,06,10,4.80
2015,09,21,06,11,8.10
2015,09,21,06,12,9.60
2015,09,21,06,13,8.10
2015,09,21,06,14,6.40
2015,09,21,06,15,8.10
2015,09,21,06,16,9.60
2015,09,21,06,17,9.60
2015,09,21,06,18,9.60
2015,09,21,06,19,4.80
2015,09,21,06,20,3.20
2015,09,21,06,21,6.40
2015,09,21,06,22,4.80
2015,09,21,06,23,4.80
2015,09,21,06,24,4.80
2015,09,21,06,25,3.20
2015,09,21,06,26,4.80
2015,09,21,06,27,3.20
2015,09,21,06,28,4.80
2015,09,21,06,29,4.80
2015,09,21,06,30,6.40
2015,09,21,06,31,4.80
2015,09,21,06,32,4.80
2015,09,21,06,33,8.10
2015,09,21,06,34,4.80
2015,09,21,06,35,1.60
2015,09,21,06,36,1.60
2015,09,21,06,37,4.80
2015,09,21,06,38,6.40
2015,09,21,06,39,3.20
2015,09,21,06,40,4.80
2015,09,21,06,41,8.10
2015,09,21,06,42,6.40
2015,09,21,06,43,4.80
2015,09,21,06,44,4.80
2015,09,21,06,45,6.40
2015,09,21,06,46,8.10
2015,09,21,06,47,6.40
2015,09,21,06,48,4.80
2015,09,21,06,49,6.40
2015,09,21,06,50,8.10
2015,09,21,06,51,8.10
2015,09,21,06,52,8.10
2015,09,21,06,53,9.60
2015,09,21,06,54,9.60
2015,09,21,06,55,8.10
2015,09,21,06,56,9.60
2015,09,21,06,57,9.60
2015,09,21,06,58,9.60
2015,09,21,06,59,9.60
2015,09,21,07,00,11.30
2015,09,21,07,01,11.30
2015,09,21,07,02,9.60
2015,09,21,07,03,8.10
2015,09,21,07,04,6.40
2015,09,21,07,05,6.40
2015,09,21,07,06,8.10
2015,09,21,07,07,6.40
2015,09,21,07,08,8.10
2015,09,21,07,09,8.10
2015,09,21,07,10,6.40
2015,09,21,07,11,6.40
2015,09,21,07,12,8.10
2015,09,21,07,13,4.80
2015,09,21,07,14,4.80
2015,09,21,07,15,6.40
2015,09,21,07,16,1.60
2015,09,21,07,17,1.60
2015,09,21,07,18,3.20
2015,09,21,07,19,4.80
2015,09,21,07,20,6.40
2015,09,21,07,21,6.40
2015,09,21,07,22,6.40
2015,09,21,07,23,3.20
2015,09,21,07,24,3.20
2015,09,21,07,25,3.20
2015,09,21,07,26,1.60
2015,09,21,07,33,3.20
2015,09,21,07,34,1.60
2015,09,21,07,35,3.20
2015,09,21,07,36,1.60
2015,09,21,07,37,3.20
2015,09,21,07,38,3.20
2015,09,21,07,39,1.60
2015,09,21,07,42,3.20
2015,09,21,07,43,3.20
2015,09,21,07,44,1.60
2015,09,21,07,49,1.60
2015,09,21,07,50,1.60
2015,09,21,08,27,3.20
2015,09,21,08,28,3.20
2015,09,21,08,29,3.20
2015,09,21,08,30,3.20
2015,09,21,08,31,3.20
2015,09,21,08,32,3.20
2015,09,21,08,33,4.80
2015,09,21,08,34,3.20
2015,09,21,08,35,4.80
2015,09,21,08,36,6.40
2015,09,21,08,37,1.60
2015,09,21,08,38,3.20
2015,09,21,08,39,1.60
2015,09,21,08,40,1.60
2015,09,21,08,41,1.60
2015,09,21,08,42,1.60
2015,09,21,08,43,8.10
2015,09,21,08,44,6.40
2015,09,21,08,45,8.10
2015,09,21,08,46,4.80
2015,09,21,08,47,4.80
2015,09,21,08,48,4.80
2015,09,21,08,49,6.40
2015,09,21,08,50,4.80
2015,09,21,08,51,4.80
2015,09,21,08,52,6.40
2015,09,21,08,53,9.60
2015,09,21,08,54,9.60
2015,09,21,08,55,6.40
2015,09,21,08,56,8.10
2015,09,21,08,57,11.30
2015,09,21,08,58,6.40
2015,09,21,08,59,8.10
2015,09,21,09,00,11.30
2015,09,21,09,01,11.30
2015,09,21,09,02,9.60
2015,09,21,09,03,6.40
2015,09,21,09,04,6.40
2015,09,21,09,05,9.60
2015,09,21,09,06,8.10
2015,09,21,09,07,6.40
2015,09,21,09,08,3.20
2015,09,21,09,09,6.40
2015,09,21,09,10,8.10
2015,09,21,09,11,11.30
2015,09,21,09,12,9.60
2015,09,21,09,13,14.50
2015,09,21,09,14,9.60
2015,09,21,09,15,11.30
2015,09,21,09,16,16.10
2015,09,21,09,17,11.30
2015,09,21,09,18,11.30
2015,09,21,09,19,16.10
2015,09,21,09,20,8.10
2015,09,21,09,21,11.30
2015,09,21,09,22,14.50
2015,09,21,09,23,17.70
2015,09,21,09,24,9.60
2015,09,21,09,25,3.20
2015,09,21,09,26,3.20
2015,09,21,09,27,3.20
2015,09,21,09,28,4.80
2015,09,21,09,29,11.30
2015,09,21,09,30,16.10
2015,09,21,09,31,14.50
2015,09,21,09,32,9.60
2015,09,21,09,33,4.80
2015,09,21,09,34,4.80
2015,09,21,09,35,12.90
2015,09,21,09,36,4.80
2015,09,21,09,37,19.30
2015,09,21,09,38,12.90
2015,09,21,09,39,6.40
2015,09,21,09,40,11.30
2015,09,21,09,41,11.30
2015,09,21,09,42,8.10
2015,09,21,09,43,3.20
2015,09,21,09,44,3.20
2015,09,21,09,45,4.80
2015,09,21,09,46,3.20
2015,09,21,09,47,4.80
2015,09,21,09,48,4.80
2015,09,21,09,49,4.80
2015,09,21,09,50,4.80
2015,09,21,09,51,4.80
2015,09,21,09,52,11.30
2015,09,21,09,53,11.30
2015,09,21,09,54,3.20
2015,09,21,09,55,6.40
2015,09,21,09,56,4.80
2015,09,21,09,57,11.30
2015,09,21,09,58,3.20
2015,09,21,10,00,4.80
2015,09,21,10,01,17.70
2015,09,21,10,02,14.50
2015,09,21,10,03,11.30
2015,09,21,10,04,12.90
2015,09,21,10,05,4.80
2015,09,21,10,06,6.40
2015,09,21,10,07,9.60
2015,09,21,10,08,9.60
2015,09,21,10,09,9.60
2015,09,21,10,10,9.60
2015,09,21,10,11,8.10
2015,09,21,10,12,8.10
2015,09,21,10,13,9.60
2015,09,21,10,14,8.10
2015,09,21,10,15,9.60
2015,09,21,10,16,3.20
2015,09,21,10,17,16.10
2015,09,21,10,18,17.70
2015,09,21,10,19,16.10
2015,09,21,10,20,9.60
2015,09,21,10,21,9.60
2015,09,21,10,22,4.80
2015,09,21,10,23,4.80
2015,09,21,10,24,9.60
2015,09,21,10,25,9.60
2015,09,21,10,26,16.10
2015,09,21,10,27,22.50
2015,09,21,10,28,14.50
2015,09,21,10,29,17.70
2015,09,21,10,30,14.50
2015,09,21,10,31,16.10
2015,09,21,10,32,14.50
2015,09,21,10,33,9.60
2015,09,21,10,34,8.10
2015,09,21,10,35,16.10
2015,09,21,10,36,16.10
2015,09,21,10,37,11.30
2015,09,21,10,38,12.90
2015,09,21,10,39,16.10
2015,09,21,10,40,16.10
2015,09,21,10,41,12.90
2015,09,21,10,42,14.50
2015,09,21,10,43,16.10
2015,09,21,10,44,11.30
2015,09,21,10,45,14.50
2015,09,21,10,46,8.10
2015,09,21,10,47,14.50
2015,09,21,10,48,12.90
2015,09,21,10,49,16.10
2015,09,21,10,50,12.90
2015,09,21,10,51,9.60
2015,09,21,10,52,17.70
2015,09,21,10,53,14.50
2015,09,21,10,54,14.50
2015,09,21,10,55,25.70
2015,09,21,10,56,14.50
2015,09,21,10,57,22.50
2015,09,21,10,58,12.90
2015,09,21,10,59,6.40
2015,09,21,11,00,16.10
2015,09,21,11,01,16.10
2015,09,21,11,02,8.10
2015,09,21,11,03,6.40
2015,09,21,11,04,14.50
2015,09,21,11,05,12.90
2015,09,21,11,06,11.30
2015,09,21,11,07,9.60
2015,09,21,11,08,8.10
2015,09,21,11,09,14.50
2015,09,21,11,10,12.90
2015,09,21,11,11,8.10
2015,09,21,11,12,8.10
2015,09,21,11,13,11.30
2015,09,21,11,14,11.30
2015,09,21,11,15,9.60
2015,09,21,11,16,9.60
2015,09,21,11,17,9.60
2015,09,21,11,18,12.90
2015,09,21,11,19,9.60
2015,09,21,11,20,9.60
2015,09,21,11,21,8.10
2015,09,21,11,22,8.10
2015,09,21,11,23,14.50
2015,09,21,11,24,11.30
2015,09,21,11,25,8.10
2015,09,21,11,26,4.80
2015,09,21,11,27,6.40
2015,09,21,11,28,8.10
2015,09,21,11,29,16.10
2015,09,21,11,30,14.50
2015,09,21,11,31,9.60
2015,09,21,11,32,11.30
2015,09,21,11,33,9.60
2015,09,21,11,34,3.20
2015,09,21,11,35,6.40
2015,09,21,11,36,8.10
2015,09,21,11,37,16.10
2015,09,21,11,38,16.10
2015,09,21,11,39,16.10
2015,09,21,11,40,19.30
2015,09,21,11,41,12.90
2015,09,21,11,42,14.50
2015,09,21,11,43,20.90
2015,09,21,11,44,16.10
2015,09,21,11,45,20.90
2015,09,21,11,46,17.70
2015,09,21,11,47,9.60
2015,09,21,11,48,9.60
2015,09,21,11,49,16.10
2015,09,21,11,50,11.30
2015,09,21,11,51,8.10
2015,09,21,11,52,14.50
2015,09,21,11,53,17.70
2015,09,21,11,54,17.70
2015,09,21,11,55,22.50
2015,09,21,11,56,11.30
2015,09,21,11,57,12.90
2015,09,21,11,58,12.90
2015,09,21,11,59,12.90
2015,09,21,12,00,17.70
2015,09,21,12,01,14.50
2015,09,21,12,02,11.30
2015,09,21,12,03,14.50
2015,09,21,12,04,19.30
2015,09,21,12,05,17.70
2015,09,21,12,06,20.90
2015,09,21,12,07,9.60
2015,09,21,12,08,17.70
2015,09,21,12,09,12.90
2015,09,21,12,10,8.10
2015,09,21,12,11,22.50
2015,09,21,12,12,17.70
2015,09,21,12,13,12.90
2015,09,21,12,14,14.50
2015,09,21,12,15,16.10
2015,09,21,12,16,9.60
2015,09,21,12,17,12.90
2015,09,21,12,18,11.30
2015,09,21,12,19,17.70
2015,09,21,12,20,11.30
2015,09,21,12,21,12.90
2015,09,21,12,22,12.90
2015,09,21,12,23,8.10
2015,09,21,12,24,9.60
2015,09,21,12,25,9.60
2015,09,21,12,26,11.30
2015,09,21,12,27,19.30
2015,09,21,12,28,17.70
2015,09,21,12,29,8.10
2015,09,21,12,30,19.30
2015,09,21,12,31,20.90
2015,09,21,12,32,19.30
2015,09,21,12,33,12.90
2015,09,21,12,34,14.50
2015,09,21,12,35,12.90
2015,09,21,12,36,12.90
2015,09,21,12,37,8.10
2015,09,21,12,38,11.30
2015,09,21,12,39,6.40
2015,09,21,12,40,9.60
2015,09,21,12,41,8.10
2015,09,21,12,42,6.40
2015,09,21,12,43,6.40
2015,09,21,12,44,9.60
2015,09,21,12,45,9.60
2015,09,21,12,46,14.50
2015,09,21,12,47,16.10
2015,09,21,12,48,12.90
2015,09,21,12,49,20.90
2015,09,21,12,50,17.70
2015,09,21,12,51,14.50
2015,09,21,12,52,16.10
2015,09,21,12,53,11.30
2015,09,21,12,54,11.30
2015,09,21,12,55,11.30
2015,09,21,12,56,9.60
2015,09,21,12,57,9.60
2015,09,21,12,58,9.60
2015,09,21,12,59,4.80
2015,09,21,13,00,12.90
2015,09,21,13,01,14.50
2015,09,21,13,02,8.10
2015,09,21,13,03,4.80
2015,09,21,13,04,9.60
2015,09,21,13,05,12.90
2015,09,21,13,06,19.30
2015,09,21,13,07,20.90
2015,09,21,13,08,22.50
2015,09,21,13,09,22.50
2015,09,21,13,10,19.30
2015,09,21,13,11,17.70
2015,09,21,13,12,22.50
2015,09,21,13,13,16.10
2015,09,21,13,14,12.90
2015,09,21,13,15,3.20
2015,09,21,13,16,4.80
2015,09,21,13,17,11.30
2015,09,21,13,18,11.30
2015,09,21,13,19,11.30
2015,09,21,13,20,11.30
2015,09,21,13,21,9.60
2015,09,21,13,22,14.50
2015,09,21,13,23,11.30
2015,09,21,13,24,11.30
2015,09,21,13,25,19.30
2015,09,21,13,26,11.30
2015,09,21,13,27,11.30
2015,09,21,13,28,11.30
2015,09,21,13,29,20.90
2015,09,21,13,30,14.50
2015,09,21,13,31,9.60
2015,09,21,13,32,11.30
2015,09,21,13,33,8.10
2015,09,21,13,34,14.50
2015,09,21,13,35,8.10
2015,09,21,13,36,8.10
2015,09,21,13,37,12.90
2015,09,21,13,38,11.30
2015,09,21,13,39,14.50
2015,09,21,13,40,9.60
2015,09,21,13,41,8.10
2015,09,21,13,42,11.30
2015,09,21,13,43,14.50
2015,09,21,13,44,11.30
2015,09,21,13,45,8.10
2015,09,21,13,46,8.10
2015,09,21,13,47,8.10
2015,09,21,13,48,16.10
2015,09,21,13,49,11.30
2015,09,21,13,50,11.30
2015,09,21,13,51,12.90
2015,09,21,13,52,6.40
2015,09,21,13,53,8.10
2015,09,21,13,54,16.10
2015,09,21,13,55,11.30
2015,09,21,13,56,8.10
2015,09,21,13,57,4.80
2015,09,21,13,58,6.40
2015,09,21,13,59,8.10
2015,09,21,14,00,4.80
2015,09,21,14,01,12.90
2015,09,21,14,02,11.30
2015,09,21,14,03,11.30
2015,09,21,14,04,6.40
2015,09,21,14,05,9.60
2015,09,21,14,06,3.20
2015,09,21,14,07,4.80
2015,09,21,14,08,3.20
2015,09,21,14,09,3.20
2015,09,21,14,10,4.80
2015,09,21,14,11,8.10
2015,09,21,14,12,9.60
2015,09,21,14,13,8.10
2015,09,21,14,14,9.60
2015,09,21,14,15,12.90
2015,09,21,14,16,9.60
2015,09,21,14,17,16.10
2015,09,21,14,18,12.90
2015,09,21,14,19,12.90
2015,09,21,14,20,6.40
2015,09,21,14,21,11.30
2015,09,21,14,22,12.90
2015,09,21,14,23,8.10
2015,09,21,14,24,8.10
2015,09,21,14,25,11.30
2015,09,21,14,26,6.40
2015,09,21,14,27,9.60
2015,09,21,14,28,3.20
2015,09,21,14,29,6.40
2015,09,21,14,30,6.40
2015,09,21,14,31,9.60
2015,09,21,14,32,8.10
2015,09,21,14,33,6.40
2015,09,21,14,34,6.40
2015,09,21,14,35,9.60
2015,09,21,14,36,9.60
2015,09,21,14,37,12.90
2015,09,21,14,38,9.60
2015,09,21,14,39,6.40
2015,09,21,14,40,9.60
2015,09,21,14,41,8.10
2015,09,21,14,42,4.80
2015,09,21,14,43,9.60
2015,09,21,14,44,6.40
2015,09,21,14,45,6.40
2015,09,21,14,46,11.30
2015,09,21,14,47,8.10
2015,09,21,14,48,11.30
2015,09,21,14,49,11.30
2015,09,21,14,50,14.50
2015,09,21,14,51,16.10
2015,09,21,14,52,14.50
2015,09,21,14,53,12.90
2015,09,21,14,54,16.10
2015,09,21,14,55,16.10
2015,09,21,14,56,14.50
2015,09,21,14,57,9.60
2015,09,21,14,58,12.90
2015,09,21,14,59,14.50
2015,09,21,15,00,12.90
2015,09,21,15,01,14.50
2015,09,21,15,02,14.50
2015,09,21,15,03,12.90
2015,09,21,15,04,11.30
2015,09,21,15,05,12.90
2015,09,21,15,06,4.80
2015,09,21,15,07,8.10
2015,09,21,15,08,4.80
2015,09,21,15,09,9.60
2015,09,21,15,10,12.90
2015,09,21,15,11,14.50
2015,09,21,15,12,9.60
2015,09,21,15,13,12.90
2015,09,21,15,14,9.60
2015,09,21,15,15,3.20
2015,09,21,15,16,8.10
2015,09,21,15,17,11.30
2015,09,21,15,18,8.10
2015,09,21,15,19,8.10
2015,09,21,15,20,9.60
2015,09,21,15,21,3.20
2015,09,21,15,22,6.40
2015,09,21,15,23,4.80
2015,09,21,15,24,4.80
2015,09,21,15,25,11.30
2015,09,21,15,26,8.10
2015,09,21,15,27,8.10
2015,09,21,15,28,16.10
2015,09,21,15,29,9.60
2015,09,21,15,30,8.10
2015,09,21,15,31,9.60
2015,09,21,15,32,6.40
2015,09,21,15,33,8.10
2015,09,21,15,34,3.20
2015,09,21,15,35,14.50
2015,09,21,15,36,12.90
2015,09,21,15,37,19.30
2015,09,21,15,38,11.30
2015,09,21,15,39,16.10
2015,09,21,15,40,11.30
2015,09,21,15,41,8.10
2015,09,21,15,42,8.10
2015,09,21,15,43,6.40
2015,09,21,15,44,11.30
2015,09,21,15,45,8.10
2015,09,21,15,46,3.20
2015,09,21,15,47,8.10
2015,09,21,15,48,12.90
2015,09,21,15,49,6.40
2015,09,21,15,50,8.10
2015,09,21,15,51,3.20
2015,09,21,15,52,1.60
2015,09,21,15,53,8.10
2015,09,21,15,54,14.50
2015,09,21,15,55,6.40
2015,09,21,15,56,4.80
2015,09,21,15,57,6.40
2015,09,21,15,58,8.10
2015,09,21,15,59,8.10
2015,09,21,16,00,4.80
2015,09,21,16,01,4.80
2015,09,21,16,02,4.80
2015,09,21,16,03,3.20
2015,09,21,16,04,4.80
2015,09,21,16,05,1.60
2015,09,21,16,06,1.60
2015,09,21,16,07,3.20
2015,09,21,16,08,9.60
2015,09,21,16,09,9.60
2015,09,21,16,10,12.90
2015,09,21,16,11,6.40
2015,09,21,16,12,9.60
2015,09,21,16,13,11.30
2015,09,21,16,14,8.10
2015,09,21,16,15,9.60
2015,09,21,16,16,12.90
2015,09,21,16,17,12.90
2015,09,21,16,18,4.80
2015,09,21,16,19,6.40
2015,09,21,16,20,11.30
2015,09,21,16,21,12.90
2015,09,21,16,22,11.30
2015,09,21,16,23,14.50
2015,09,21,16,24,11.30
2015,09,21,16,25,12.90
2015,09,21,16,26,14.50
2015,09,21,16,27,12.90
2015,09,21,16,28,11.30
2015,09,21,16,29,8.10
2015,09,21,16,30,8.10
2015,09,21,16,31,4.80
2015,09,21,16,32,4.80
2015,09,21,16,33,4.80
2015,09,21,16,34,4.80
2015,09,21,16,35,11.30
2015,09,21,16,36,12.90
2015,09,21,16,37,11.30
2015,09,21,16,38,11.30
2015,09,21,16,39,9.60
2015,09,21,16,40,12.90
2015,09,21,16,41,12.90
2015,09,21,16,42,9.60
2015,09,21,16,43,8.10
2015,09,21,16,44,3.20
2015,09,21,16,45,1.60
2015,09,21,16,46,1.60
2015,09,21,16,47,4.80
2015,09,21,16,48,4.80
2015,09,21,16,49,6.40
2015,09,21,16,50,6.40
2015,09,21,16,51,6.40
2015,09,21,16,52,8.10
2015,09,21,16,53,3.20
2015,09,21,16,54,11.30
2015,09,21,16,55,9.60
2015,09,21,16,56,9.60
2015,09,21,16,57,11.30
2015,09,21,16,58,11.30
2015,09,21,16,59,8.10
2015,09,21,17,00,8.10
2015,09,21,17,01,9.60
2015,09,21,17,02,12.90
2015,09,21,17,03,11.30
2015,09,21,17,04,12.90
2015,09,21,17,05,14.50
2015,09,21,17,06,11.30
2015,09,21,17,07,11.30
2015,09,21,17,08,9.60
2015,09,21,17,09,4.80
2015,09,21,17,10,6.40
2015,09,21,17,11,4.80
2015,09,21,17,12,6.40
2015,09,21,17,13,6.40
2015,09,21,17,14,4.80
2015,09,21,17,15,6.40
2015,09,21,17,16,9.60
2015,09,21,17,17,4.80
2015,09,21,17,18,4.80
2015,09,21,17,19,6.40
2015,09,21,17,20,9.60
2015,09,21,17,21,9.60
2015,09,21,17,22,8.10
2015,09,21,17,23,6.40
2015,09,21,17,24,4.80
2015,09,21,17,25,4.80
2015,09,21,17,26,3.20
2015,09,21,17,27,4.80
2015,09,21,17,28,3.20
2015,09,21,17,29,4.80
2015,09,21,17,30,4.80
2015,09,21,17,31,4.80
2015,09,21,17,32,4.80
2015,09,21,17,33,4.80
2015,09,21,17,34,6.40
2015,09,21,17,35,11.30
2015,09,21,17,36,8.10
2015,09,21,17,37,9.60
2015,09,21,17,38,3.20
2015,09,21,17,39,4.80
2015,09,21,17,40,3.20
2015,09,21,17,41,3.20
2015,09,21,17,42,4.80
2015,09,21,17,43,1.60
2015,09,21,17,44,1.60
2015,09,21,17,45,1.60
2015,09,21,17,46,1.60
2015,09,21,17,47,1.60
2015,09,21,17,48,1.60
2015,09,21,17,49,3.20
2015,09,21,17,50,1.60
2015,09,21,17,51,1.60
2015,09,21,17,52,3.20
2015,09,21,17,53,3.20
2015,09,21,17,54,3.20
2015,09,21,18,00,1.60
2015,09,21,18,01,3.20
2015,09,21,18,02,1.60
2015,09,21,18,03,1.60
2015,09,21,18,05,1.60
2015,09,21,18,07,1.60
2015,09,21,18,08,3.20
2015,09,21,18,09,3.20
2015,09,21,18,10,3.20
2015,09,21,18,11,3.20
2015,09,21,18,12,3.20
2015,09,21,18,13,1.60
2015,09,21,18,14,1.60
2015,09,21,18,15,1.60
2015,09,21,18,16,1.60
2015,09,21,18,17,1.60
2015,09,21,18,18,1.60
2015,09,21,18,19,1.60
2015,09,21,18,20,1.60
2015,09,21,18,21,1.60
2015,09,21,18,22,1.60
2015,09,21,18,23,3.20
2015,09,21,18,24,1.60
2015,09,21,18,26,1.60
2015,09,21,18,28,1.60
2015,09,21,18,29,1.60
2015,09,21,18,30,1.60
2015,09,21,18,31,1.60
2015,09,21,18,32,1.60
2015,09,21,18,33,1.60
2015,09,21,18,34,1.60
2015,09,21,18,35,1.60
2015,09,21,18,58,1.60
2015,09,21,18,59,1.60
2015,09,21,19,00,1.60